Regional Weather Roundup
Issued by NWS

Home | Current Version | Previous Version | Graphics & Text | Print | Product List | Glossary On
Versions: 1 2 3 4 5 6 7 8 9 10 11 12 13 14 15 16 17 18 19 20 21 22 23 24 25 26 27 28 29 30 31 32 33 34 35 36 37 38 39 40 41 42 43 44 45 46 47 48 49 50
490
ASUS43 KDTX 290010
RWRMI
MICHIGAN HOURLY REGIONAL WEATHER ROUNDUP
NATIONAL WEATHER SERVICE DETROIT/PONTIAC MI
ISSUED BY NATIONAL WEATHER SERVICE GRAND RAPIDS MI
800 PM EDT WED JUN 28 2017

NOTE: "FAIR" INDICATES FEW OR NO CLOUDS BELOW 12,000 FEET WITH NO
SIGNIFICANT WEATHER AND/OR OBSTRUCTION TO VISIBILITY.

MIZ047>049-052>055-059>063-066>070-074>076-081>083-290100-
SOUTHEAST LOWER MICHIGAN

CITY           SKY/WX    TMP DP  RH WIND       PRES   REMARKS
ADRIAN         CLOUDY    73  53  49 S7        29.96S
6HR MIN TEMP:  71; 6HR MAX TEMP:  80; 6HR PCP: TRACE;

ALMA           CLOUDY    69  54  57 S10       29.91R
ANN ARBOR      LGT RAIN  67  57  70 S6        29.96S
BAD AXE        LGT RAIN  64  57  77 S8        29.95S
6HR MIN TEMP:  64; 6HR MAX TEMP:  74;

DETROIT CITY   CLOUDY    73  51  46 S10       29.98R
6HR MIN TEMP:  73; 6HR MAX TEMP:  77;

DETROIT        LGT RAIN  74  53  48 S8        29.97R
6HR MIN TEMP:  74; 6HR MAX TEMP:  79; 6HR PCP: TRACE;

FLINT          CLOUDY    68  56  65 S8        29.94F
6HR MIN TEMP:  67; 6HR MAX TEMP:  76; 6HR PCP: TRACE;

GROSSE ILE     CLOUDY    74  53  48 SW8       29.97R
6HR MIN TEMP:  71; 6HR MAX TEMP:  76;

HILLSDALE      CLOUDY    72  50  46 S8        29.94F
HOWELL         DRIZZLE   71  48  44 S12       29.96R
6HR MIN TEMP:  71; 6HR MAX TEMP:  76;


CITY           SKY/WX    TMP DP  RH WIND       PRES   REMARKS
JACKSON        PTSUNNY   70  56  61 SE7       29.94F
6HR MIN TEMP:  69; 6HR MAX TEMP:  78; 6HR PCP: TRACE;

LANSING        CLOUDY    72  51  47 S12       29.93F
6HR MIN TEMP:  71; 6HR MAX TEMP:  79; 6HR PCP: TRACE;

MASON          CLOUDY    70  54  56 SE7       29.94S
MONROE         LGT RAIN  74  52  45 S6        29.96S
6HR MIN TEMP:  74; 6HR MAX TEMP:  78;

MT. CLEMENS    CLOUDY    72  52  50 S8        29.97R
6HR MIN TEMP:  72; 6HR MAX TEMP:  78;

PONTIAC        LGT RAIN  73  51  46 S8        29.96R
6HR MIN TEMP:  73; 6HR MAX TEMP:  77; 6HR PCP: TRACE;

PORT HOPE        N/A     65  56  72 S6        29.94R
6HR MIN TEMP:  65; 6HR MAX TEMP:  76; 6HR PCP:  0.03;

PORT HURON     RAIN      70  50  49 S5        29.98R
TRI CITIES     CLOUDY    70  58  65 S9        29.91F
6HR MIN TEMP:  70; 6HR MAX TEMP:  76; 6HR PCP: TRACE;

YPSILANTI      LGT RAIN  73  54  51 S14G24    29.96S
6HR MIN TEMP:  73; 6HR MAX TEMP:  80; 6HR PCP: TRACE;

$$
MIZ043>046-050>051-056>058-064>065-071>073-077>080-290100-
SOUTHWEST LOWER MICHIGAN

CITY           SKY/WX    TMP DP  RH WIND       PRES   REMARKS
BATTLE CREEK   CLOUDY    74  53  48 S10       29.91F
6HR MIN TEMP:  72; 6HR MAX TEMP:  76; 6HR PCP: TRACE;

BENTON HARBOR  CLOUDY    77  55  46 S15G22    29.81F
6HR MIN TEMP:  71; 6HR MAX TEMP:  80; 6HR PCP: TRACE;

BIG RAPIDS     RAIN      63  59  87 S9        29.88S
6HR MIN TEMP:  63; 6HR MAX TEMP:  71; 6HR PCP:  0.13;

COLDWATER      CLOUDY    74  48  39 S7        29.93S
6HR MIN TEMP:  72; 6HR MAX TEMP:  76;

HOLLAND        CLOUDY    69  60  73 S10       29.82F
6HR MIN TEMP:  67; 6HR MAX TEMP:  74; 6HR PCP:  0.06;

GRAND RAPIDS   LGT RAIN  67  61  81 E7        29.85F
6HR MIN TEMP:  67; 6HR MAX TEMP:  74; 6HR PCP:  0.02;

KALAMAZOO      PTSUNNY   75  50  41 S12G22    29.87F
6HR MIN TEMP:  72; 6HR MAX TEMP:  76; 6HR PCP: TRACE;

MARSHALL       MOSUNNY   73  53  51 S6        29.92F
6HR MIN TEMP:  70; 6HR MAX TEMP:  77;

MOUNT PLEASANT LGT RAIN  68  55  62 S6        29.91R
6HR MIN TEMP:  68; 6HR MAX TEMP:  76;

MUSKEGON       CLOUDY    67  62  84 E8        29.81F
6HR MIN TEMP:  66; 6HR MAX TEMP:  73; 6HR PCP:  0.13;

STURGIS        PTSUNNY   75  53  45 S12G21    29.91F
6HR MIN TEMP:  71; 6HR MAX TEMP:  76;

$$
MIZ016>042-290100-
NORTHERN LOWER MICHIGAN

CITY           SKY/WX    TMP DP  RH WIND       PRES   REMARKS
ALPENA         LGT RAIN  63  62  97 SE5       29.89F
6HR MIN TEMP:  63; 6HR MAX TEMP:  77; 6HR PCP:  0.04;

BEAVER ISLAND  RAIN      61  61 100 SE9       29.79F
BELLAIRE       LGT RAIN  63  60  90 CALM      29.80F
6HR MIN TEMP:  62; 6HR MAX TEMP:  73;

CADILLAC       PTSUNNY   63  59  86 S13       29.83F
CHARLEVOIX     LGT RAIN  62  62 100 S9        29.82F
6HR MIN TEMP:  62; 6HR MAX TEMP:  74;

GAYLORD        LGT RAIN  61  57  87 S13G25    29.84F FOG
6HR MIN TEMP:  61; 6HR MAX TEMP:  71; 6HR PCP:  0.30;

HOUGHTON LAKE  CLOUDY    64  58  80 S10G17    29.87F
6HR MIN TEMP:  63; 6HR MAX TEMP:  73; 6HR PCP:  0.07;

MANISTEE       LGT RAIN  64  61  90 SE12G20   29.75F
OSCODA         LGT RAIN  64  58  82 S14       29.91R
6HR MIN TEMP:  64; 6HR MAX TEMP:  76;

PELLSTON       LGT RAIN  63  60  90 S7        29.82F
6HR MIN TEMP:  63; 6HR MAX TEMP:  76; 6HR PCP:  0.07;

TRAVERSE CITY  CLOUDY    65  60  84 VRB7      29.76F
6HR MIN TEMP:  63; 6HR MAX TEMP:  73; 6HR PCP:  0.22;

LUDINGTON      CLOUDY    64  61  91 S17G28    29.77F
6HR MIN TEMP:  62; 6HR MAX TEMP:  65; 6HR PCP:  0.25;

$$
MIZ007>008-015-290100-
EASTERN UPPER MICHIGAN

CITY           SKY/WX    TMP DP  RH WIND       PRES   REMARKS
KINROSS        CLOUDY    61  60  97 SE12      29.83F
6HR MIN TEMP:  61; 6HR MAX TEMP:  74;

MACKINAC ISLAN RAIN      61  61 100 SE3       29.82F
6HR MIN TEMP:  61; 6HR MAX TEMP:  73; 6HR PCP:  0.35;

NEWBERRY       LGT RAIN  59  58  97 S8        29.79F
6HR MIN TEMP:  59; 6HR MAX TEMP:  69; 6HR PCP:  0.19;

S. S. MARIE    LGT RAIN  62  60  93 E8        29.83F FOG
6HR MIN TEMP:  62; 6HR MAX TEMP:  76; 6HR PCP:  0.02;

$$
MIZ004>006-011>014-085-290100-
CENTRAL UPPER MICHIGAN

CITY           SKY/WX    TMP DP  RH WIND       PRES   REMARKS
MANISTIQUE     HVY RAIN  58  55  89 SE8       29.75F
6HR MIN TEMP:  57; 6HR MAX TEMP:  63; 6HR PCP:  0.08;

ESCANABA       CLOUDY    61  60  97 S9        29.72S
6HR MIN TEMP:  61; 6HR MAX TEMP:  64; 6HR PCP:  0.04;

MENOMINEE      CLOUDY    62  60  93 S9        29.70S FOG
6HR MIN TEMP:  61; 6HR MAX TEMP:  64; 6HR PCP:  0.11;

SAWYER-GWINN   CLOUDY    61  59  94 S12       29.71F
$$
MIZ001>003-009>011-084-290100-
WESTERN UPPER MICHIGAN

CITY           SKY/WX    TMP DP  RH WIND       PRES   REMARKS
IRON MOUNTAIN  LGT RAIN  62  60  93 S7        29.68R FOG
6HR MIN TEMP:  62; 6HR MAX TEMP:  64; 6HR PCP: TRACE;

HOUGHTON       LGT RAIN  62  59  90 E9        29.65S FOG
6HR MIN TEMP:  61; 6HR MAX TEMP:  70; 6HR PCP:  0.21;

COPPER HARBOR    N/A     62  58  86 SW8       29.66S
6HR MIN TEMP:  62; 6HR MAX TEMP:  69;

IRONWOOD       CLOUDY    65  62  90 S12       29.57F
6HR MIN TEMP:  62; 6HR MAX TEMP:  65;

$$

ABBREVIATIONS USED IN REMARKS
   TC - TEMPERATURE IN CELSIUS
  WCI - WIND CHILL INDEX
   HX - HEAT INDEX
  VSB - VISIBILITY





USA.gov is the U.S. government's official web portal to all federal, state and local government web resources and services.